Overview Statistics Trail Chart Weather Telemetry Raw packets
 

This is the latest recevied weather packets stored in our database for station/object KQ7A. If no packets are shown the sender has not sent any weather packets the latest 10 day(s).

<< 7 8 9 10 11 12 13 >>
Time Temp. Humidity Pressure Rain* Wind** Luminosity Snow
1788628035 18.89° C 46% 1017.9 hPa 0 mm - 226 W/m² -
1788627730 19.44° C 45% 1017.8 hPa 0 mm - 743 W/m² -
1788627430 18.89° C 44% 1017.9 hPa 0 mm - 712 W/m² -
1788627125 18.89° C 46% 1018.2 hPa 0 mm - 694 W/m² -
1788626820 17.78° C 48% 1017.9 hPa 0 mm - 672 W/m² -
1788626519 16.67° C 53% 1018.2 hPa 0 mm - 636 W/m² -
1788626215 16.11° C 53% 1017.9 hPa 0 mm - 592 W/m² -
1788625912 16.67° C 53% 1018.4 hPa 0 mm - 567 W/m² -
1788625608 15.56° C 55% 1018.2 hPa 0 mm - 501 W/m² -
1788625306 15.56° C 56% 1018.2 hPa 0 mm - 499 W/m² -
1788625001 15.56° C 56% 1018.2 hPa 0 mm - 464 W/m² -
1788624699 15° C 57% 1018.3 hPa 0 mm - 149 W/m² -
1788624392 15° C 55% 1018.3 hPa 0 mm - 139 W/m² -
1788624087 15° C 56% 1018.4 hPa 0 mm - 397 W/m² -
1788623787 14.44° C 56% 1017.9 hPa 0 mm - 144 W/m² -
1788623486 14.44° C 55% 1018.3 hPa 0 mm - 160 W/m² -
1788623180 13.33° C 59% 1018.3 hPa 0 mm - 235 W/m² -
1788622876 13.33° C 60% 1018.4 hPa 0 mm - 331 W/m² -
1788622572 12.78° C 62% 1018.6 hPa 0 mm - 311 W/m² -
1788622267 12.78° C 62% 1018.5 hPa 0 mm - 121 W/m² -
1788621962 13.89° C 59% 1018.4 hPa 0 mm - 106 W/m² -
1788621656 13.89° C 57% 1018.3 hPa 0 mm - 149 W/m² -
1788621351 13.89° C 55% 1018.3 hPa 0 mm - 184 W/m² -
1788621047 15° C 54% 1018.2 hPa 0 mm - 211 W/m² -
1788620742 14.44° C 54% 1018.4 hPa 0 mm - 161 W/m² -

* Rain latest hour (hover to see other rain measurements)
** Current wind speed in m/s (hover to see current wind gust speed)